When you browse on this site, cookies collect data to enhance your experience and personalize the content and advertising you see.
Visit our Privacy Policy to learn more. By continuing to use the site, you agree to this use of cookies and data.
  • In Deutschland
  • Länderverzeichnis
  • Für 7 Tage
  • Wassertemperatur
  • Satellitenkarten
  • Wetterkarte
  • Widgets
  • user-avatar
    Anmelden

    Stündliche Wetter Karachi

    Heute, 19 Februar, Dienstag

    Zeit Temperatur Niederschläge Wind Luftdruck Luftfeuchtigkeit
    00:00 +11°C° 0.3 mm 1 m/S 512 mmHg 98%
    01:00 +11°C° 0.3 mm 1 m/S 512 mmHg 98%
    02:00 +11°C° 0 mm 1 m/S 512 mmHg 98%
    03:00 +10°C° 0.3 mm 1 m/S 512 mmHg 98%
    04:00 +9°C° 0.3 mm 0 m/S 512 mmHg 97%
    05:00 +9°C° 0.3 mm 0 m/S 512 mmHg 97%
    06:00 +9°C° 0.3 mm 0 m/S 512 mmHg 96%
    07:00 +10°C° 0.3 mm 0 m/S 512 mmHg 94%
    08:00 +10°C° 0 mm 0 m/S 513 mmHg 93%
    09:00 +12°C° 0.3 mm 1 m/S 513 mmHg 90%
    10:00 +13°C° 0.3 mm 1 m/S 514 mmHg 86%
    11:00 +14°C° 0.3 mm 1 m/S 514 mmHg 83%
    12:00 +14°C° 0.7 mm 2 m/S 514 mmHg 83%
    13:00 +14°C° 0.7 mm 2 m/S 513 mmHg 83%
    14:00 +14°C° 0.7 mm 2 m/S 513 mmHg 83%
    15:00 +14°C° 1.2 mm 2 m/S 512 mmHg 86%
    16:00 +13°C° 1.2 mm 2 m/S 512 mmHg 88%
    17:00 +13°C° 1.2 mm 1 m/S 511 mmHg 91%
    18:00 +12°C° 3 mm 1 m/S 511 mmHg 93%
    19:00 +12°C° 3 mm 1 m/S 511 mmHg 95%
    20:00 +11°C° 3 mm 1 m/S 512 mmHg 96%
    21:00 +11°C° 3.8 mm 1 m/S 512 mmHg 96%
    22:00 +10°C° 3.8 mm 0 m/S 513 mmHg 96%
    23:00 +10°C° 3.8 mm 0 m/S 513 mmHg 96%

    Morgen, 20 Februar, Mittwoch

    Zeit Temperatur Niederschläge Wind Luftdruck Luftfeuchtigkeit
    00:00 +9°C° 3.5 mm 0 m/S 513 mmHg 96%
    01:00 +9°C° 3.5 mm 0 m/S 513 mmHg 96%
    02:00 +9°C° 3.5 mm 0 m/S 512 mmHg 96%
    03:00 +9°C° 2.2 mm 0 m/S 512 mmHg 95%
    04:00 +9°C° 2.2 mm 1 m/S 512 mmHg 95%
    05:00 +9°C° 2.2 mm 1 m/S 512 mmHg 94%
    06:00 +10°C° 0.4 mm 1 m/S 512 mmHg 93%
    07:00 +9°C° 0.4 mm 0 m/S 513 mmHg 91%
    08:00 +10°C° 0.4 mm 0 m/S 514 mmHg 90%
    09:00 +12°C° 0.3 mm 1 m/S 514 mmHg 85%
    10:00 +13°C° 0.3 mm 1 m/S 515 mmHg 79%
    11:00 +15°C° 0.3 mm 1 m/S 515 mmHg 74%
    12:00 +14°C° 1.1 mm 1 m/S 514 mmHg 78%
    13:00 +14°C° 1.1 mm 1 m/S 513 mmHg 82%
    14:00 +13°C° 1.1 mm 1 m/S 512 mmHg 86%
    15:00 +13°C° 2.1 mm 1 m/S 512 mmHg 88%
    16:00 +13°C° 2.1 mm 1 m/S 511 mmHg 89%
    17:00 +13°C° 2.1 mm 1 m/S 511 mmHg 91%
    18:00 +12°C° 2.5 mm 1 m/S 511 mmHg 92%
    19:00 +11°C° 2.5 mm 1 m/S 511 mmHg 93%
    20:00 +11°C° 2.5 mm 1 m/S 511 mmHg 94%
    21:00 +11°C° 1.2 mm 1 m/S 512 mmHg 94%
    22:00 +11°C° 1.2 mm 1 m/S 512 mmHg 93%
    23:00 +10°C° 1.2 mm 1 m/S 513 mmHg 92%

    übermorgen, 21 Februar, Donnerstag

    Zeit Temperatur Niederschläge Wind Luftdruck Luftfeuchtigkeit
    00:00 +10°C° 0.5 mm 1 m/S 513 mmHg 93%
    01:00 +10°C° 0.5 mm 1 m/S 512 mmHg 93%
    02:00 +9°C° 0.5 mm 0 m/S 512 mmHg 93%
    03:00 +9°C° 0.3 mm 0 m/S 512 mmHg 93%
    04:00 +9°C° 0.3 mm 0 m/S 512 mmHg 93%
    05:00 +10°C° 0.3 mm 1 m/S 512 mmHg 93%
    06:00 +9°C° 0.1 mm 0 m/S 513 mmHg 90%
    07:00 +10°C° 0.1 mm 0 m/S 513 mmHg 87%
    08:00 +11°C° 0.1 mm 0 m/S 514 mmHg 84%
    09:00 +13°C° 0.1 mm 1 m/S 515 mmHg 79%
    10:00 +14°C° 0.1 mm 1 m/S 515 mmHg 75%
    11:00 +15°C° 0.1 mm 2 m/S 516 mmHg 70%
    12:00 +15°C° 0.5 mm 2 m/S 515 mmHg 74%
    13:00 +15°C° 0.5 mm 2 m/S 515 mmHg 77%
    14:00 +15°C° 0.5 mm 2 m/S 514 mmHg 80%
    15:00 +15°C° 1 mm 1 m/S 513 mmHg 82%
    16:00 +14°C° 1 mm 1 m/S 513 mmHg 84%
    17:00 +14°C° 1 mm 1 m/S 512 mmHg 86%
    18:00 +13°C° 1.5 mm 1 m/S 512 mmHg 88%
    19:00 +12°C° 1.5 mm 1 m/S 512 mmHg 91%
    20:00 +10°C° 1.5 mm 0 m/S 512 mmHg 94%
    21:00 +11°C° 1.1 mm 1 m/S 512 mmHg 93%
    22:00 +11°C° 1.1 mm 1 m/S 513 mmHg 92%
    23:00 +10°C° 1.1 mm 1 m/S 513 mmHg 91%

    22 Februar, Freitag

    Zeit Temperatur Niederschläge Wind Luftdruck Luftfeuchtigkeit
    00:00 +10°C° 0.6 mm 1 m/S 513 mmHg 91%
    01:00 +10°C° 0.6 mm 1 m/S 513 mmHg 92%
    02:00 +10°C° 0.6 mm 1 m/S 512 mmHg 92%
    03:00 +10°C° 0.3 mm 1 m/S 512 mmHg 92%
    04:00 +10°C° 0.3 mm 1 m/S 512 mmHg 92%
    05:00 +10°C° 0.3 mm 1 m/S 512 mmHg 91%
    06:00 +11°C° 0 mm 1 m/S 513 mmHg 88%
    07:00 +12°C° 0 mm 1 m/S 514 mmHg 84%
    08:00 +13°C° 0 mm 1 m/S 515 mmHg 81%
    09:00 +14°C° 0.2 mm 1 m/S 516 mmHg 77%
    10:00 +15°C° 0.2 mm 1 m/S 516 mmHg 73%
    11:00 +16°C° 0.2 mm 2 m/S 517 mmHg 68%
    12:00 +16°C° 0.7 mm 2 m/S 516 mmHg 70%
    13:00 +16°C° 0.7 mm 2 m/S 515 mmHg 72%
    14:00 +16°C° 0.7 mm 2 m/S 515 mmHg 73%
    15:00 +16°C° 1.2 mm 2 m/S 514 mmHg 76%
    16:00 +16°C° 1.2 mm 2 m/S 514 mmHg 78%
    17:00 +15°C° 1.2 mm 2 m/S 513 mmHg 80%
    18:00 +13°C° 0.6 mm 2 m/S 513 mmHg 84%
    19:00 +12°C° 0.6 mm 1 m/S 512 mmHg 88%
    20:00 +10°C° 0.6 mm 1 m/S 512 mmHg 92%
    21:00 +10°C° 0.3 mm 1 m/S 512 mmHg 90%
    22:00 +9°C° 0.3 mm 1 m/S 512 mmHg 88%
    23:00 +9°C° 0.3 mm 1 m/S 513 mmHg 87%

    23 Februar, Samstag

    Zeit Temperatur Niederschläge Wind Luftdruck Luftfeuchtigkeit
    00:00 +9°C° 0.4 mm 1 m/S 512 mmHg 86%
    01:00 +9°C° 0.4 mm 1 m/S 512 mmHg 85%
    02:00 +9°C° 0.4 mm 1 m/S 512 mmHg 84%
    03:00 +9°C° 0 mm 1 m/S 512 mmHg 84%
    04:00 +9°C° 0 mm 1 m/S 512 mmHg 85%
    05:00 +8°C° 0 mm 1 m/S 511 mmHg 86%
    06:00 +10°C° 0 mm 1 m/S 513 mmHg 80%
    07:00 +11°C° 0 mm 1 m/S 514 mmHg 75%
    08:00 +12°C° 0 mm 0 m/S 515 mmHg 70%
    09:00 +14°C° 0.1 mm 1 m/S 515 mmHg 67%
    10:00 +15°C° 0.1 mm 1 m/S 516 mmHg 64%
    11:00 +17°C° 0.1 mm 2 m/S 516 mmHg 61%
    12:00 +17°C° 0.5 mm 2 m/S 515 mmHg 62%
    13:00 +17°C° 0.5 mm 2 m/S 515 mmHg 64%
    14:00 +17°C° 0.5 mm 2 m/S 514 mmHg 65%
    15:00 +17°C° 0.6 mm 2 m/S 513 mmHg 67%
    16:00 +16°C° 0.6 mm 2 m/S 512 mmHg 69%
    17:00 +16°C° 0.6 mm 2 m/S 512 mmHg 72%
    18:00 +14°C° 0.3 mm 1 m/S 511 mmHg 79%
    19:00 +12°C° 0.3 mm 1 m/S 511 mmHg 87%
    20:00 +9°C° 0.3 mm 0 m/S 510 mmHg 94%
    21:00 +9°C° 0 mm 0 m/S 510 mmHg 94%
    22:00 +10°C° 0 mm 1 m/S 511 mmHg 94%
    23:00 +9°C° 0 mm 1 m/S 511 mmHg 94%

    24 Februar, Sonntag

    Zeit Temperatur Niederschläge Wind Luftdruck Luftfeuchtigkeit
    00:00 +10°C° 0 mm 1 m/S 511 mmHg 94%
    01:00 +10°C° 0 mm 1 m/S 511 mmHg 94%
    02:00 +10°C° 0 mm 1 m/S 511 mmHg 94%
    03:00 +9°C° 0 mm 1 m/S 511 mmHg 93%
    04:00 +9°C° 0 mm 1 m/S 510 mmHg 92%
    05:00 +9°C° 0 mm 1 m/S 510 mmHg 91%
    06:00 +10°C° 0 mm 1 m/S 511 mmHg 85%
    07:00 +11°C° 0 mm 1 m/S 512 mmHg 80%
    08:00 +13°C° 0 mm 1 m/S 513 mmHg 74%
    09:00 +14°C° 0 mm 1 m/S 514 mmHg 70%
    10:00 +15°C° 0 mm 1 m/S 514 mmHg 66%
    11:00 +17°C° 0 mm 2 m/S 515 mmHg 61%
    12:00 +16°C° 0.3 mm 2 m/S 514 mmHg 64%
    13:00 +16°C° 0.3 mm 2 m/S 513 mmHg 67%
    14:00 +16°C° 0.3 mm 2 m/S 512 mmHg 70%
    15:00 +15°C° 0.4 mm 2 m/S 511 mmHg 74%
    16:00 +15°C° 0.4 mm 2 m/S 511 mmHg 78%
    17:00 +14°C° 0.4 mm 1 m/S 510 mmHg 82%
    18:00 +13°C° 0.3 mm 1 m/S 510 mmHg 87%
    19:00 +12°C° 0.3 mm 1 m/S 510 mmHg 92%
    20:00 +11°C° 0.3 mm 1 m/S 510 mmHg 96%
    21:00 +11°C° 0.1 mm 1 m/S 511 mmHg 96%
    22:00 +11°C° 0.1 mm 1 m/S 511 mmHg 96%
    23:00 +10°C° 0.1 mm 0 m/S 511 mmHg 95%
    Mehr zeigen